Torna al catalogo

THORAD AGENA D DEB

AttivoLEO
NORAD 4988·DEBRIS·🇺🇸 United States

Lanciato Apr 8, 1970 da Vandenberg Space Force Base

Loading…

Prossimi Passaggi

TLE

Source: Space-Track
1  4988U 70025HJ  26221.83191384  .00000249  00000-0  35408-3 0  9991
2  4988 100.0295 218.2321 0016253 142.1473 339.1050 13.67174405791158

Traccia THORAD AGENA D DEB in tempo reale con AllMySat

Download on the App Store